Location: Hickory_CSC
(35.7330°N, 81.3330°W)
Time: 22:57:56
(UTC-04:00)

Cosmos 1356 Rocket - Visible Passes

Search period start: 23 May 2015 00:00
Search period end: 02 June 2015 00:00
Orbit: 547 x 603 km, 81.2° (Epoch: 23 May)

Date Brightness Start Highest point End Pass type
(mag) Time Alt. Az. Time Alt. Az. Time Alt. Az.
24 May 3.4 20:49:43 10° N 20:53:55 84° E 20:58:01 10° S visible
26 May 4.5 20:56:47 10° NNW 21:00:48 47° W 21:04:42 10° SSW visible
27 May 5.2 21:00:28 10° NNW 21:04:13 33° W 21:07:51 10° SSW visible
28 May 5.8 21:04:15 10° NW 21:07:37 24° W 21:10:51 10° SW visible
29 May 6.2 21:08:14 10° NW 21:11:00 17° W 21:13:36 10° SW visible
30 May 6.5 21:12:36 10° WNW 21:14:22 12° W 21:15:56 10° WSW visible
